Weather History for KMJQ - December, 2011

Change the Weather History Date:

Monday, December 5, 2011

  Actual Average Record
Temperature  
Mean Temperature 14 °F -  
Max Temperature 19 °F 33 °F 60 °F (2001)
Min Temperature 10 °F 19 °F -5 °F (2005)
Degree Days  
Heating Degree Days 50    
Moisture  
Dew Point 12 °F    
Average Humidity 84    
Maximum Humidity 93    
Minimum Humidity 79    
Precipitation  
Precipitation 0.00 in - - ()
Sea Level Pressure  
Sea Level Pressure 30.41 in    
Wind  
Wind Speed 9 mph (NW)    
Max Wind Speed 20 mph    
Max Gust Speed 24 mph    
Visibility 9 miles    
Events Snow    
Averages and records for this station are not official NWS values.
T = Trace of Precipitation, MM = Missing Value Source: NWS Daily Summary

Daily Weather History Graph

Daily Weather History Graph

Search for Another Location

Airport or City:

Trip Planner

Search our weather history database for the weather conditions in past years. The results will help you decide how hot, cold, wet, or windy it might be!

Date:

Astronomy

Dec. 05, 2011 Rise Set
Actual Time 7:37 AM CST 4:43 PM CST
Civil Twilight 7:05 AM CST 5:15 PM CST
Nautical Twilight 6:29 AM CST 5:51 PM CST
Astronomical Twilight 5:54 AM CST 6:26 PM CST
Moon 1:46 PM CST (12/5) 2:53 AM CST (12/5)
Length of Visible Light 10h 10m
Length of Day
9h 05m
Waxing Gibbous, 80% of the Moon is Illuminated
Dec 5
Waxing Gibbous
Dec 10
Full
Dec 17
Last Quarter
Dec 24
New
Jan 1
First Quarter

Hourly Weather History & Observations

Time (CST) Temp. Windchill Dew Point Humidity Pressure Visibility Wind Dir Wind Speed Gust Speed Precip Events Conditions
12:13 AM 19.4 °F 11.5 °F 14.0 °F 80% 30.34 in 10.0 mi NW 5.8 mph - N/A   Overcast
12:32 AM 17.6 °F 8.2 °F 14.0 °F 86% 30.34 in 10.0 mi NW 6.9 mph - N/A   Overcast
12:53 AM 17.6 °F 8.2 °F 14.0 °F 86% 30.34 in 10.0 mi NW 6.9 mph - N/A   Overcast
1:13 AM 17.6 °F 9.3 °F 14.0 °F 86% 30.34 in 10.0 mi NW 5.8 mph - N/A   Mostly Cloudy
1:33 AM 14.0 °F 6.5 °F 12.2 °F 93% 30.34 in 10.0 mi WNW 4.6 mph - N/A   Scattered Clouds
1:53 AM 10.4 °F 2.2 °F 8.6 °F 92% 30.34 in 10.0 mi WNW 4.6 mph - N/A   Mostly Cloudy
2:12 AM 10.4 °F 0.8 °F 8.6 °F 92% 30.34 in 10.0 mi WNW 5.8 mph - N/A   Overcast
2:33 AM 10.4 °F 2.2 °F 8.6 °F 92% 30.35 in 10.0 mi WNW 4.6 mph - N/A   Overcast
2:53 AM 12.2 °F - 10.4 °F 92% 30.35 in 10.0 mi Calm Calm - N/A   Overcast
3:13 AM 12.2 °F 6.1 °F 10.4 °F 92% 30.36 in 10.0 mi West 3.5 mph - N/A   Overcast
3:33 AM 14.0 °F - 12.2 °F 93% 30.36 in 10.0 mi Calm Calm - N/A   Overcast
4:12 AM 14.0 °F 6.5 °F 12.2 °F 93% 30.37 in 10.0 mi WNW 4.6 mph - N/A   Overcast
4:33 AM 15.8 °F 6.1 °F 14.0 °F 93% 30.37 in 10.0 mi NW 6.9 mph - N/A   Overcast
5:12 AM 15.8 °F 7.2 °F 12.2 °F 86% 30.38 in 10.0 mi NW 5.8 mph - N/A   Overcast
5:33 AM 15.8 °F 3.4 °F 12.2 °F 86% 30.38 in 10.0 mi NW 10.4 mph - N/A   Overcast
5:53 AM 15.8 °F 4.2 °F 12.2 °F 86% 30.38 in 10.0 mi NNW 9.2 mph - N/A   Overcast
6:12 AM 17.6 °F 5.7 °F 12.2 °F 79% 30.38 in 10.0 mi NW 10.4 mph - N/A   Overcast
6:33 AM 17.6 °F 5.7 °F 12.2 °F 79% 30.39 in 10.0 mi NNW 10.4 mph - N/A   Overcast
6:52 AM 17.6 °F 6.4 °F 14.0 °F 86% 30.39 in 10.0 mi NNW 9.2 mph - N/A   Overcast
7:13 AM 17.6 °F 5.0 °F 12.2 °F 79% 30.39 in 10.0 mi NNW 11.5 mph - N/A   Overcast
7:33 AM 17.6 °F 5.0 °F 12.2 °F 79% 30.40 in 10.0 mi NNW 11.5 mph - N/A   Overcast
7:52 AM 17.6 °F 6.4 °F 14.0 °F 86% 30.43 in 10.0 mi NNW 9.2 mph - N/A   Overcast
8:13 AM 17.6 °F 5.0 °F 14.0 °F 86% 30.43 in 10.0 mi NW 11.5 mph - N/A   Overcast
8:33 AM 17.6 °F 3.2 °F 14.0 °F 86% 30.43 in 10.0 mi NW 15.0 mph - N/A   Mostly Cloudy
8:52 AM 17.6 °F 5.0 °F 14.0 °F 86% 30.44 in 10.0 mi NNW 11.5 mph 15.0 mph N/A Snow Light Snow
9:13 AM 17.6 °F 2.7 °F 14.0 °F 86% 30.44 in 10.0 mi NW 16.1 mph - N/A Snow Light Snow
9:33 AM 17.6 °F 3.2 °F 14.0 °F 86% 30.44 in 10.0 mi NNW 15.0 mph 19.6 mph N/A   Mostly Cloudy
9:53 AM 17.6 °F 3.7 °F 14.0 °F 86% 30.45 in 10.0 mi NNW 13.8 mph 17.3 mph N/A Snow Light Snow
10:13 AM 19.4 °F 7.2 °F 14.0 °F 80% 30.46 in 10.0 mi NNW 11.5 mph 19.6 mph N/A Snow Light Snow
10:32 AM 19.4 °F 5.5 °F 14.0 °F 80% 30.46 in 10.0 mi NNW 15.0 mph 20.7 mph N/A   Overcast
10:53 AM 19.4 °F 6.6 °F 14.0 °F 80% 30.46 in 10.0 mi NNW 12.7 mph 19.6 mph N/A   Mostly Cloudy
11:13 AM 19.4 °F 6.6 °F 14.0 °F 80% 30.46 in 10.0 mi NNW 12.7 mph 16.1 mph N/A   Mostly Cloudy
11:33 AM 19.4 °F 6.6 °F 14.0 °F 80% 30.46 in 5.0 mi North 12.7 mph 20.7 mph N/A Snow Light Snow
11:53 AM 19.4 °F 8.6 °F 14.0 °F 80% 30.46 in 10.0 mi North 9.2 mph 18.4 mph N/A Snow Light Snow
12:13 PM 19.4 °F 7.2 °F 14.0 °F 80% 30.45 in 3.0 mi NNW 11.5 mph 18.4 mph N/A Snow Light Snow
12:32 PM 19.4 °F 9.5 °F 14.0 °F 80% 30.45 in 4.0 mi North 8.1 mph - N/A Snow Light Snow
12:53 PM 19.4 °F 6.6 °F 14.0 °F 80% 30.44 in 5.0 mi NNW 12.7 mph 17.3 mph N/A Snow Light Snow
1:13 PM 19.4 °F 6.0 °F 14.0 °F 80% 30.45 in 7.0 mi NNW 13.8 mph 18.4 mph N/A Snow Light Snow
1:33 PM 17.6 °F 2.7 °F 14.0 °F 86% 30.44 in 3.0 mi NNW 16.1 mph - N/A Snow Light Snow
1:53 PM 17.6 °F 2.7 °F 14.0 °F 86% 30.44 in 5.0 mi NW 16.1 mph - N/A Snow Light Snow
2:13 PM 17.6 °F 1.7 °F 12.2 °F 79% 30.44 in 5.0 mi NNW 18.4 mph - N/A Snow Light Snow
2:32 PM 17.6 °F 2.2 °F 12.2 °F 79% 30.44 in 5.0 mi NW 17.3 mph - N/A Snow Light Snow
2:53 PM 15.8 °F -0.6 °F 12.2 °F 86% 30.44 in 7.0 mi NW 18.4 mph 23.0 mph N/A Snow Light Snow
3:13 PM 15.8 °F -1.1 °F 10.4 °F 79% 30.44 in 10.0 mi NW 19.6 mph 24.2 mph N/A   Overcast
3:33 PM 15.8 °F -0.6 °F 10.4 °F 79% 30.44 in 10.0 mi NW 18.4 mph 24.2 mph N/A   Overcast
3:53 PM 14.0 °F -2.5 °F 10.4 °F 86% 30.44 in 10.0 mi NW 17.3 mph - N/A   Overcast
4:13 PM 14.0 °F -2.0 °F 10.4 °F 86% 30.45 in 10.0 mi NW 16.1 mph 21.9 mph N/A   Mostly Cloudy
4:33 PM 14.0 °F -0.8 °F 10.4 °F 86% 30.45 in 10.0 mi NNW 13.8 mph - N/A   Mostly Cloudy
4:53 PM 14.0 °F 1.2 °F 8.6 °F 79% 30.45 in 10.0 mi NNW 10.4 mph 17.3 mph N/A   Overcast
5:13 PM 14.0 °F 3.9 °F 8.6 °F 79% 30.45 in 10.0 mi NNW 6.9 mph - N/A   Overcast
5:32 PM 14.0 °F 1.2 °F 8.6 °F 79% 30.46 in 10.0 mi NNW 10.4 mph - N/A   Mostly Cloudy
5:53 PM 14.0 °F 1.2 °F 8.6 °F 79% 30.46 in 10.0 mi NNW 10.4 mph - N/A   Mostly Cloudy
6:13 PM 14.0 °F 2.0 °F 8.6 °F 79% 30.45 in 10.0 mi NNW 9.2 mph - N/A Snow Light Snow
6:32 PM 14.0 °F 2.9 °F 8.6 °F 79% 30.45 in 10.0 mi NNW 8.1 mph - N/A Snow Light Snow
6:53 PM 14.0 °F 2.9 °F 8.6 °F 79% 30.45 in 10.0 mi NNW 8.1 mph - N/A Snow Light Snow
7:13 PM 14.0 °F 2.0 °F 8.6 °F 79% 30.45 in 10.0 mi NNW 9.2 mph - N/A Snow Light Snow
7:32 PM 12.2 °F -0.2 °F 8.6 °F 85% 30.46 in 10.0 mi NNW 9.2 mph - N/A Snow Light Snow
7:53 PM 12.2 °F -0.2 °F 6.8 °F 79% 30.46 in 10.0 mi North 9.2 mph - N/A   Mostly Cloudy
8:13 PM 12.2 °F -0.2 °F 6.8 °F 79% 30.45 in 10.0 mi North 9.2 mph - N/A   Mostly Cloudy
8:32 PM 10.4 °F 2.2 °F 5.0 °F 79% 30.45 in 10.0 mi North 4.6 mph - N/A   Mostly Cloudy
8:53 PM 8.6 °F -2.6 °F 5.0 °F 85% 30.46 in 10.0 mi NNW 6.9 mph - N/A   Overcast
9:13 PM 8.6 °F 0.1 °F 5.0 °F 85% 30.45 in 10.0 mi NNW 4.6 mph - N/A   Overcast
9:32 PM 8.6 °F -2.6 °F 3.2 °F 79% 30.45 in 10.0 mi NNW 6.9 mph - N/A   Overcast
9:53 PM 5.0 °F -6.9 °F 1.4 °F 85% 30.45 in 10.0 mi NNW 6.9 mph - N/A   Scattered Clouds
10:13 PM 3.2 °F -6.2 °F -0.4 °F 85% 30.45 in 10.0 mi NNW 4.6 mph - N/A   Scattered Clouds
10:32 PM -0.4 °F - -4.0 °F 85% 30.45 in 10.0 mi Calm Calm - N/A Snow Light Snow
10:53 PM 1.4 °F - -0.4 °F 92% 30.45 in 10.0 mi Calm Calm - N/A   Overcast
11:12 PM 1.4 °F -6.2 °F -0.4 °F 92% 30.45 in 10.0 mi WNW 3.5 mph - N/A   Overcast
11:33 PM 1.4 °F - -2.2 °F 85% 30.44 in 10.0 mi Calm Calm - N/A Snow Light Snow
11:53 PM 1.4 °F - -2.2 °F 85% 30.44 in 10.0 mi Calm Calm - N/A Snow Light Snow